Overview Statistics Trail Chart Weather Telemetry Raw packets
 

This is the latest recevied weather packets stored in our database for station/object IU1OLT-6. If no packets are shown the sender has not sent any weather packets the latest 10 day(s).

<< 11 12 13 14 15 16 17 >>
Time Temp. Humidity Pressure Rain* Wind** Luminosity Snow
1788400386 15° C 75% 1016.1 hPa 0 mm - - -
1788400354 15° C 75% 1016.1 hPa 0 mm - - -
1788399394 15° C 74% 1016 hPa 0 mm - - -
1788398434 15° C 77% 1016.2 hPa 0 mm - - -
1788397474 15° C 76% 1016.2 hPa 0 mm - - -
1788396514 15° C 76% 1016.1 hPa 0 mm - - -
1788395554 15° C 79% 1016.2 hPa 0 mm - - -
1788394642 15.56° C 76% 1016.3 hPa 0 mm - - -
1788393634 15° C 76% 1016.4 hPa 0 mm - - -
1788392674 15.56° C 73% 1016.4 hPa 0 mm - - -
1788391714 15.56° C 70% 1016.3 hPa 0 mm - - -
1788390754 15.56° C 71% 1016.3 hPa 0 mm - - -
1788389794 15.56° C 69% 1016.2 hPa 0 mm - - -
1788388834 15.56° C 66% 1016.2 hPa 0 mm - - -
1788387874 15.56° C 63% 1016.2 hPa 0 mm - - -
1788386914 16.11° C 65% 1016.2 hPa 0 mm - - -
1788385954 16.11° C 59% 1016.3 hPa 0 mm - - -
1788384994 15.56° C 76% 1016.4 hPa 0 mm - - -
1788384034 15° C 77% 1016.3 hPa 0 mm - - -
1788383074 15° C 80% 1016.3 hPa 0 mm - - -
1788382121 16.11° C 67% 1016.2 hPa 0 mm - - -
1788382114 16.11° C 67% 1016.2 hPa 0 mm - - -
1788381202 15.56° C 75% 1016.1 hPa 0 mm - - -
1788380290 16.11° C 61% 1016.2 hPa 0 mm - - -
1788379330 16.11° C 59% 1016.2 hPa 0 mm - - -

* Rain latest hour (hover to see other rain measurements)
** Current wind speed in m/s (hover to see current wind gust speed)